Jaipur / Sanganer, India

10:14 AM IST on January 18, 2017 (GMT +0530)
Jaipur / Sanganer

Weather History for 42348 - January, 2013

Change the Weather History Date:

Tuesday, January 1, 2013

  Actual Average Record
Temperature  
Mean Temperature 55 °F -  
Max Temperature 70 °F - - ()
Min Temperature 40 °F - - ()
Degree Days  
Heating Degree Days 10    
Growing Degree Days 5 (Base 50)    
Moisture  
Dew Point 37 °F    
Average Humidity 49    
Maximum Humidity 87    
Minimum Humidity 14    
Precipitation  
Precipitation 0.00 in - - ()
Sea Level Pressure  
Sea Level Pressure 29.95 in    
Wind  
Wind Speed 2 mph ()    
Max Wind Speed 7 mph    
Max Gust Speed -    
Visibility 1.5 miles    
Events      
T = Trace of Precipitation, MM = Missing Value Source: Averaged Metar Reports

Daily Weather History Graph

Daily Weather History Graph

Search for Another Location

Airport or City:

Trip Planner

Search our weather history database for the weather conditions in past years. The results will help you decide how hot, cold, wet, or windy it might be!

Date:

Astronomy

Jan. 01, 2013 Rise Set
Actual Time 7:15 AM IST 5:45 PM IST
Civil Twilight 6:50 AM IST 6:10 PM IST
Nautical Twilight 6:21 AM IST 6:39 PM IST
Astronomical Twilight 5:53 AM IST 7:07 PM IST
Moon 9:24 PM IST (1/1) 9:34 AM IST (1/1)
Length of Visible Light 11h 20m
Length of Day
10h 29m
Waning Gibbous, 86% of the Moon is Illuminated
Jan 1
Waning Gibbous
Jan 5
Last Quarter
Jan 12
New
Jan 19
First Quarter
Jan 27
Full

Hourly Weather History & Observations

Time (IST) Temp. Dew Point Humidity Pressure Visibility Wind Dir Wind Speed Gust Speed Precip Events Conditions
1:00 AM 50.0 °F 41.0 °F 71% 29.92 in 1.2 mi Variable 3.5 mph - N/A   Smoke
2:00 AM 48.2 °F 39.2 °F 71% 29.95 in 1.2 mi Calm Calm - N/A   Smoke
2:30 AM 49 °F 41 °F 66% 29.93 in 1 mi Calm Calm - -   Smoke
3:00 AM 48.2 °F 41.0 °F 76% 29.92 in 1.2 mi Calm Calm - N/A   Smoke
5:00 AM 42.8 °F 37.4 °F 81% 29.92 in 1.2 mi Calm Calm - N/A   Mist
6:00 AM 41.0 °F 37.4 °F 87% 29.95 in 1.1 mi Calm Calm - N/A   Mist
8:00 AM 42.8 °F 37.4 °F 81% 29.98 in 0.9 mi Calm Calm - N/A   Mist
8:30 AM 44 °F 39 °F 77% 30.01 in 1 mi ESE 3.5 mph - -   Mist
9:00 AM 53.6 °F 41.0 °F 62% 30.01 in 1.2 mi ESE 4.6 mph - N/A   Mist
10:00 AM 57.2 °F 41.0 °F 55% 30.04 in 1.2 mi Variable 3.5 mph - N/A   Mist
11:00 AM 59.0 °F 41.0 °F 51% 30.04 in 1.2 mi SSE 4.6 mph - N/A   Mist
11:30 AM 64 °F 39 °F 29% 29.98 in 1 mi SE 4.6 mph - -   Haze
1:00 PM 64.4 °F 32.0 °F 30% 29.98 in 2.5 mi Variable 2.3 mph - N/A   Haze
2:00 PM 68.0 °F 32.0 °F 26% 29.95 in 2.5 mi Variable 1.2 mph - N/A   Haze
2:30 PM 69 °F 31 °F 14% 29.89 in 2 mi 3.5 mph - -   Haze
2:30 PM 66.2 °F 32.0 °F 28% 29.92 in 2.5 mi Variable 3.5 mph - N/A   Haze
3:00 PM 68.0 °F 32.0 °F 26% 29.92 in 2.5 mi Variable 3.5 mph - N/A   Haze
4:00 PM 68.0 °F 33.8 °F 28% 29.92 in 2.5 mi Variable 2.3 mph - N/A   Haze
5:00 PM 66.2 °F 33.8 °F 30% 29.92 in 2.2 mi East 4.6 mph - N/A   Haze
5:30 PM 65 °F 36 °F 22% 29.89 in 1 mi 2.3 mph - -   Haze
5:30 PM 64.4 °F 35.6 °F 34% 29.92 in 2.2 mi Variable 2.3 mph - N/A   Haze
7:00 PM 59.0 °F 37.4 °F 45% 29.95 in 1.2 mi Variable 3.5 mph - N/A   Smoke
8:00 PM 57.2 °F 35.6 °F 44% 29.95 in 1.2 mi ENE 4.6 mph - N/A   Smoke
8:30 PM 56 °F 35 °F 33% 29.94 in 1 mi ENE 4.6 mph - -   Smoke
9:00 PM 55.4 °F 35.6 °F 47% 29.98 in 1.2 mi East 4.6 mph - N/A   Smoke
10:00 PM 53.6 °F 37.4 °F 54% 29.98 in 1.2 mi East 5.8 mph - N/A   Smoke
11:00 PM 51.8 °F 41.0 °F 67% 29.98 in 1.2 mi East 6.9 mph - N/A   Smoke